Wind_Speed
19 20 19 19 18 18 18 18 18 19 20 21 22 23 24 25 26 27 27 27 27 26 27 27 28 29 31 32 34 36 38 40 41 41 42 43 43 42 43 44 43 46
21 21 21 21 20 19 19 19 20 21 22 24 25 26 27 28 28 27 27 26 26 27 27 28 29 30 32 33 35 37 38 40 40 40 42 43 44 43 42 43 42 44
22 22 21 21 21 21 21 22 22 22 24 25 27 28 28 28 28 27 26 27 27 28 28 30 31 32 33 34 36 37 38 40 41 41 42 42 43 43 43 42 42 43
22 22 22 22 22 23 23 23 23 24 25 27 29 30 30 30 30 30 30 31 32 32 33 34 35 35 35 36 37 38 38 40 41 42 43 43 42 42 43 42 41 44
22 21 22 23 23 24 25 24 24 25 27 29 31 33 34 35 35 35 35 35 36 37 37 38 38 38 38 38 39 39 39 39 41 43 45 44 43 42 42 41 41 43
24 23 23 26 27 28 27 26 25 26 28 30 32 34 36 37 39 39 39 39 39 40 40 40 40 40 40 40 41 41 40 40 40 42 45 45 44 42 41 41 41 43
28 27 26 28 31 32 32 30 29 30 31 32 34 34 36 38 40 41 42 43 43 43 42 41 42 42 42 42 43 43 42 42 41 42 44 45 44 43 41 41 41 42
33 32 31 31 32 34 35 35 34 34 35 36 36 36 37 39 40 42 44 45 46 46 45 44 44 44 44 45 46 46 44 43 42 43 43 44 45 44 42 41 41 41
36 36 36 36 36 35 36 36 35 35 36 38 38 39 39 40 41 43 45 47 48 48 48 47 46 46 47 47 47 47 47 45 43 43 43 43 45 45 43 42 41 41
38 38 39 40 40 39 39 38 37 37 38 39 40 41 42 42 42 44 46 48 49 49 49 49 48 49 50 50 49 49 48 46 44 43 44 43 44 45 44 43 42 41
38 39 40 41 41 42 43 42 41 41 41 42 43 43 44 44 44 45 47 49 49 50 51 50 50 52 52 52 51 51 50 48 45 44 44 43 43 44 45 44 44 42
35 37 40 42 43 44 44 45 45 45 45 46 46 47 48 48 49 49 50 51 52 52 53 53 53 55 55 55 54 53 51 49 47 46 45 44 44 45 45 45 45 43
32 33 36 39 43 45 45 46 46 47 48 49 50 51 53 53 54 54 54 55 55 56 57 57 58 59 58 57 56 55 54 51 48 47 47 45 45 45 46 46 45 44
33 33 34 35 38 42 44 46 47 48 49 51 52 54 55 56 57 57 58 58 59 60 60 61 62 62 61 60 58 57 56 53 49 49 48 46 45 46 46 47 46 45
35 35 35 36 37 38 40 43 45 48 50 51 53 55 56 57 58 59 60 61 61 61 62 62 63 63 62 60 59 58 57 54 52 50 49 47 46 46 47 47 47 47
38 38 38 38 39 39 39 41 43 45 47 49 50 51 52 53 54 56 57 59 59 59 60 61 61 61 60 59 59 58 56 54 53 52 49 47 46 46 47 48 48 47
41 42 42 43 43 42 42 43 44 45 46 47 48 48 49 50 51 52 52 54 56 57 58 59 60 60 59 59 59 58 56 55 54 52 49 46 46 46 47 48 48 47
43 44 45 46 46 46 46 46 47 48 48 49 50 50 50 50 50 50 50 51 52 54 55 56 58 58 58 58 57 56 56 56 54 51 48 46 46 46 47 48 48 47
44 45 46 46 47 49 50 51 51 52 52 52 53 53 53 52 50 50 50 50 51 52 53 54 55 56 56 56 56 56 56 55 53 50 48 46 45 45 46 48 48 47
43 44 44 44 45 47 49 51 52 53 54 55 55 56 56 55 53 51 50 50 51 52 52 53 53 54 55 56 56 56 55 53 51 49 48 46 45 45 46 47 48 48
40 41 42 42 42 43 45 47 49 50 52 53 54 55 55 56 55 53 51 50 51 52 53 53 53 54 55 56 55 54 53 51 49 48 47 46 45 45 46 47 47 48
38 39 40 40 40 41 42 44 46 47 48 50 52 52 54 55 55 54 53 52 51 52 53 53 53 54 55 55 54 52 50 49 48 47 46 45 45 45 46 46 47 47
37 37 38 38 38 39 41 42 44 45 46 47 49 50 52 54 55 56 56 55 54 53 52 52 52 53 54 53 52 49 47 46 46 45 45 45 46 46 46 46 46 46
39 39 38 38 37 38 39 41 42 44 44 45 46 47 48 50 52 54 55 56 55 54 54 53 52 52 52 51 49 46 45 45 46 45 45 46 46 46 45 45 45 46
44 44 43 43 41 41 40 41 42 43 44 45 45 46 47 47 49 50 51 53 54 54 54 53 52 51 50 48 46 45 46 46 46 46 46 45 45 45 46 46 45 45
48 48 48 48 48 47 46 45 45 44 45 45 46 46 47 47 48 49 49 50 51 52 53 52 50 49 48 47 47 47 46 46 45 45 45 44 44 45 46 46 45 44
Wind_Direction
264 266 266 268 271 272 272 271 271 271 271 272 273 276 279 283 285 286 288 290 292 296 299 302 304 306 307 307 306 304 300 297 293 288 285 281 279 278 276 277 274 272
264 265 267 270 271 271 271 270 269 270 271 272 274 276 278 281 283 284 286 288 292 297 300 303 305 306 307 307 307 307 305 304 300 294 289 284 282 281 278 278 274 271
262 264 267 269 269 270 271 270 270 272 275 277 279 281 282 283 285 285 288 293 298 302 304 306 307 307 307 307 306 307 308 308 305 300 294 287 284 281 279 277 274 274
259 264 267 268 270 272 273 273 275 278 281 283 286 288 289 290 291 292 295 299 301 303 304 306 307 308 308 307 306 306 308 309 307 303 297 291 286 282 280 279 277 275
253 261 267 270 272 275 276 279 283 285 287 289 292 293 294 296 297 298 299 300 300 301 302 303 304 305 306 307 306 306 306 307 307 303 298 294 290 286 283 281 278 274
250 252 261 267 270 273 277 281 285 287 288 291 292 294 295 296 297 298 299 299 299 299 300 301 302 303 304 305 306 306 306 305 305 302 298 295 292 287 283 280 278 275
257 251 253 259 265 270 274 278 281 284 286 287 289 292 293 293 293 294 295 296 296 296 298 299 300 302 303 304 305 306 306 304 303 300 297 294 290 286 282 279 277 275
266 260 255 254 259 265 270 274 278 280 282 284 285 288 288 287 287 289 290 291 293 294 296 297 298 300 301 302 304 305 305 303 301 299 296 293 290 286 283 279 277 276
272 269 265 261 259 260 264 268 272 276 278 280 281 282 282 283 284 285 286 288 290 292 293 295 296 298 299 301 303 303 303 302 300 298 296 292 289 287 284 280 278 277
275 274 273 271 267 264 263 264 265 268 270 273 275 277 278 280 281 283 284 285 287 290 291 292 294 296 298 300 301 302 301 300 298 297 295 292 289 286 283 280 278 277
275 274 274 273 271 269 266 264 263 264 265 267 270 273 275 276 278 279 281 283 285 287 289 290 292 294 295 297 299 300 300 298 296 296 295 292 289 286 283 280 279 278
279 276 273 272 271 270 269 267 265 265 266 268 269 271 273 275 277 278 280 282 283 284 286 288 289 291 293 295 297 298 298 296 294 295 295 292 290 287 284 281 280 279
290 285 280 276 274 273 272 271 270 270 270 271 272 274 276 278 280 281 282 282 283 284 285 287 288 289 291 293 294 296 296 294 292 293 294 292 290 288 285 283 281 280
296 294 291 286 281 278 276 275 275 275 275 276 276 278 280 282 283 283 283 283 284 285 286 287 287 289 290 292 293 294 295 293 290 292 293 291 289 288 285 284 283 282
294 294 293 291 289 286 283 280 279 279 279 279 280 281 282 283 283 284 283 284 284 285 285 286 287 288 289 291 292 293 293 291 289 292 292 289 288 287 285 284 283 283
290 290 290 289 288 287 286 284 283 282 281 281 281 282 283 283 284 284 284 283 283 283 283 284 285 286 287 289 290 291 291 289 289 291 290 287 286 285 284 283 282 282
285 286 287 287 285 284 283 282 281 281 281 281 281 282 283 283 284 284 285 284 283 282 282 282 283 284 285 286 287 288 288 288 289 289 286 284 284 283 283 282 281 281
280 280 282 283 283 283 283 281 280 279 279 280 280 281 281 282 283 284 285 284 282 281 281 281 282 282 283 284 285 286 286 287 287 285 283 282 281 280 280 280 279 279
280 279 280 280 281 281 281 281 281 280 280 280 281 281 282 282 283 284 284 284 283 281 280 279 280 281 282 282 283 284 285 285 284 283 281 280 279 278 277 277 278 278
285 284 283 283 282 281 280 280 280 280 280 281 281 282 282 283 284 284 285 285 284 283 281 279 279 280 280 281 281 282 283 283 282 281 280 280 278 276 275 275 276 276
291 289 289 288 286 284 282 281 281 281 281 282 282 282 282 283 284 284 284 284 284 284 283 282 281 281 280 280 281 282 281 280 280 280 280 279 278 277 275 275 274 275
296 294 294 293 291 289 287 286 285 285 284 284 283 283 283 283 284 284 284 284 283 284 284 284 284 283 282 281 280 280 280 279 279 280 280 280 279 278 276 275 275 274
299 298 297 296 295 294 292 290 290 289 288 286 285 283 283 283 284 284 284 284 284 284 285 285 286 285 283 281 280 280 279 278 279 279 279 280 279 278 278 277 276 275
300 300 299 298 297 296 295 293 292 291 290 289 288 286 284 284 284 285 285 286 286 286 286 286 286 285 283 281 280 279 277 276 277 278 279 280 281 281 281 280 278 276
300 300 300 299 299 298 297 297 296 295 293 292 290 289 287 286 286 286 286 286 286 286 286 286 285 284 282 280 278 276 275 276 277 279 281 282 283 283 283 282 281 279
301 301 300 300 300 299 298 298 298 297 297 296 293 291 288 286 286 286 286 285 285 285 285 285 283 281 279 277 275 275 276 278 279 281 282 283 283 283 282 282 281 279
Height
3144 3144 3143 3142 3142 3142 3141 3141 3140 3140 3140 3139 3139 3138 3137 3137 3136 3135 3134 3133 3132 3131 3130 3128 3127 3126 3124 3122 3121 3118 3116 3114 3112 3111 3110 3107 3105 3104 3103 3102 3101 3101
3142 3141 3141 3140 3140 3139 3138 3138 3137 3137 3137 3136 3136 3135 3134 3133 3132 3132 3131 3129 3128 3127 3126 3124 3123 3122 3120 3118 3117 3114 3112 3110 3109 3108 3105 3102 3101 3099 3097 3097 3096 3096
3139 3138 3138 3137 3137 3136 3135 3135 3135 3135 3134 3133 3132 3131 3130 3129 3128 3128 3127 3125 3124 3123 3121 3120 3118 3117 3116 3114 3112 3110 3108 3106 3104 3103 3100 3098 3097 3094 3093 3093 3091 3090
3136 3135 3135 3135 3134 3133 3133 3132 3132 3132 3131 3130 3129 3128 3126 3125 3124 3123 3122 3121 3120 3118 3117 3116 3114 3113 3112 3110 3108 3106 3105 3102 3100 3098 3095 3093 3092 3091 3090 3088 3086 3085
3132 3132 3132 3132 3131 3131 3130 3130 3129 3128 3127 3126 3125 3123 3122 3121 3119 3118 3117 3116 3115 3114 3113 3111 3110 3109 3107 3105 3104 3102 3101 3099 3096 3094 3090 3088 3087 3085 3084 3083 3081 3081
3128 3128 3128 3128 3128 3127 3127 3127 3126 3125 3124 3122 3121 3119 3118 3117 3115 3114 3113 3111 3110 3109 3108 3107 3106 3104 3103 3101 3099 3098 3096 3094 3093 3090 3086 3084 3082 3080 3079 3078 3077 3076
3125 3123 3123 3123 3123 3123 3123 3123 3123 3121 3120 3118 3117 3116 3114 3113 3111 3110 3108 3107 3105 3104 3103 3102 3101 3100 3099 3097 3095 3093 3092 3089 3088 3086 3083 3081 3078 3076 3075 3074 3072 3071
3121 3120 3119 3118 3118 3118 3118 3118 3118 3117 3116 3114 3113 3112 3110 3109 3108 3106 3104 3102 3101 3099 3098 3097 3096 3095 3093 3092 3090 3088 3087 3085 3083 3080 3078 3077 3075 3073 3071 3070 3068 3066
3117 3117 3116 3114 3113 3113 3113 3113 3113 3112 3111 3110 3109 3107 3106 3104 3103 3101 3100 3098 3096 3095 3093 3092 3090 3089 3088 3086 3084 3083 3081 3080 3078 3076 3074 3072 3070 3068 3067 3065 3063 3061
3114 3113 3112 3111 3110 3109 3108 3108 3107 3106 3105 3104 3103 3101 3100 3099 3098 3096 3094 3093 3091 3090 3088 3086 3085 3083 3082 3080 3079 3078 3076 3074 3073 3071 3069 3067 3065 3064 3062 3060 3058 3056
3109 3109 3108 3107 3105 3104 3103 3102 3101 3100 3099 3097 3096 3095 3094 3093 3092 3090 3089 3087 3085 3084 3082 3081 3079 3077 3076 3075 3074 3072 3070 3069 3067 3065 3063 3062 3060 3059 3057 3055 3053 3052
3104 3103 3102 3101 3100 3099 3098 3097 3096 3095 3093 3092 3091 3090 3088 3087 3086 3085 3083 3081 3079 3078 3076 3075 3073 3071 3070 3069 3068 3067 3065 3063 3061 3059 3057 3056 3054 3053 3052 3050 3048 3047
3098 3097 3096 3096 3095 3094 3093 3092 3091 3090 3089 3087 3086 3084 3083 3082 3081 3079 3077 3075 3073 3072 3070 3069 3067 3065 3064 3064 3063 3061 3059 3057 3055 3053 3051 3050 3048 3047 3046 3044 3043 3042
3094 3093 3091 3090 3089 3088 3087 3087 3086 3085 3083 3082 3080 3079 3078 3077 3075 3073 3071 3069 3068 3066 3065 3063 3061 3059 3059 3058 3057 3055 3053 3051 3049 3047 3045 3044 3042 3041 3040 3038 3037 3036
3089 3088 3087 3086 3084 3083 3082 3081 3080 3078 3077 3076 3074 3073 3072 3070 3069 3067 3065 3063 3062 3060 3059 3057 3055 3054 3053 3052 3050 3049 3047 3045 3043 3041 3039 3038 3036 3035 3033 3032 3031 3030
3084 3083 3082 3081 3080 3079 3077 3076 3074 3073 3071 3070 3069 3067 3066 3064 3062 3060 3058 3057 3055 3054 3052 3050 3048 3048 3047 3046 3044 3042 3040 3038 3037 3035 3033 3031 3030 3028 3027 3026 3025 3024
3079 3078 3077 3075 3074 3073 3072 3071 3069 3068 3066 3065 3063 3062 3060 3058 3056 3054 3052 3050 3048 3047 3045 3043 3042 3041 3040 3039 3037 3035 3033 3032 3030 3029 3027 3025 3024 3022 3021 3020 3019 3017
3074 3073 3072 3070 3069 3068 3066 3065 3064 3062 3061 3059 3058 3056 3054 3052 3050 3048 3046 3044 3042 3040 3038 3037 3036 3035 3033 3032 3030 3028 3026 3025 3023 3022 3020 3019 3018 3016 3015 3014 3012 3011
3070 3068 3067 3066 3064 3063 3061 3059 3057 3056 3054 3053 3051 3049 3047 3045 3043 3042 3040 3038 3036 3034 3032 3030 3029 3028 3026 3025 3023 3021 3019 3018 3016 3015 3013 3012 3011 3010 3009 3007 3006 3005
3064 3062 3061 3059 3058 3056 3055 3053 3051 3049 3048 3045 3043 3042 3040 3038 3036 3034 3033 3031 3029 3027 3025 3023 3022 3021 3019 3017 3016 3014 3012 3011 3009 3007 3006 3005 3004 3003 3002 3001 3000 2999
3057 3055 3053 3052 3051 3049 3047 3045 3044 3042 3040 3038 3036 3034 3032 3031 3029 3027 3026 3024 3022 3020 3018 3017 3016 3014 3012 3010 3009 3007 3005 3003 3002 3001 2999 2999 2998 2997 2996 2995 2994 2993
3050 3048 3047 3045 3043 3042 3040 3038 3037 3035 3033 3031 3029 3027 3025 3023 3022 3020 3018 3017 3015 3013 3012 3011 3010 3007 3005 3003 3002 3000 2999 2997 2995 2994 2993 2992 2991 2990 2989 2988 2987 2986
3045 3043 3041 3039 3037 3035 3034 3032 3030 3028 3027 3025 3022 3021 3019 3017 3015 3013 3011 3010 3008 3007 3005 3004 3003 3001 2998 2996 2995 2993 2992 2990 2989 2987 2986 2985 2984 2983 2983 2982 2980 2979
3039 3037 3035 3033 3032 3030 3028 3026 3024 3022 3020 3018 3016 3014 3012 3011 3008 3006 3005 3003 3001 3000 2998 2997 2996 2994 2991 2990 2988 2987 2985 2984 2982 2981 2979 2979 2978 2977 2976 2975 2974 2973
3033 3031 3030 3028 3026 3024 3022 3020 3018 3016 3014 3012 3010 3007 3006 3004 3002 3000 2999 2997 2995 2993 2991 2990 2988 2987 2984 2983 2982 2980 2978 2977 2976 2974 2973 2973 2972 2971 2969 2969 2968 2967
3027 3025 3023 3021 3019 3018 3016 3014 3012 3010 3008 3006 3004 3001 2999 2998 2996 2994 2992 2991 2989 2987 2985 2983 2981 2980 2978 2977 2975 2973 2972 2970 2969 2968 2968 2967 2965 2964 2963 2962 2961 2960